RH
83 73 74 74 73 73 75 78 90 64 77 61 54 60 61 65 63 68 67 68 66 62 61 61 61 65 67 68 70 78 82 83 89 91 86 79 75 67 64 54 39 38 36 35
90 75 76 77 68 59 64 64 66 66 63 53 54 56 56 58 60 59 65 61 59 55 62 62 65 69 70 70 78 83 87 89 94 90 86 79 72 68 56 41 39 38 38 33
81 73 77 86 54 54 51 56 62 64 54 55 53 51 51 62 67 65 67 62 55 51 53 64 69 72 75 78 82 87 94 95 93 89 82 77 72 59 50 45 41 37 39 31
89 79 90 51 40 46 57 55 47 54 64 59 56 51 54 56 57 58 63 69 68 55 56 63 75 79 81 85 89 93 98 96 90 89 83 77 64 60 55 49 43 38 37 37
84 73 61 44 35 57 67 62 64 68 69 64 63 61 60 61 63 61 68 70 80 83 80 72 71 85 92 94 94 99 93 90 91 84 82 70 64 60 54 49 43 37 44 44
75 83 75 36 49 68 70 71 64 66 68 74 72 66 67 69 61 62 59 61 69 70 79 97 90 91 97 98 98 95 86 83 87 82 74 63 63 59 56 48 48 43 48 51
85 92 70 56 63 69 78 77 77 78 70 69 75 71 62 62 54 51 55 54 64 71 80 93 95 95 99 98 95 91 89 84 78 75 71 66 62 61 55 53 54 51 50 49
93 96 95 83 78 81 76 79 82 75 72 70 68 62 56 55 53 58 68 78 74 78 90 95 93 95 97 98 95 88 80 78 77 74 67 64 63 61 56 52 51 53 51 50
74 82 79 78 78 86 73 66 59 57 60 58 59 64 66 68 67 71 88 92 83 83 86 92 98 98 96 90 84 80 73 69 70 66 64 67 64 57 53 54 55 55 52 49
68 61 64 69 69 83 70 63 47 46 51 53 61 73 73 77 82 87 90 87 91 89 88 90 97 91 88 86 81 73 66 64 65 65 67 68 64 63 63 59 58 58 52 50
53 56 69 89 91 83 62 54 42 40 41 46 58 75 84 87 86 94 96 88 87 87 91 88 86 85 83 79 72 66 68 68 68 66 68 72 70 67 66 61 58 56 54 55
67 74 95 95 89 80 62 47 36 32 34 32 45 54 59 63 89 96 98 87 84 86 82 82 81 78 73 72 69 69 68 67 68 67 70 72 71 71 70 66 62 59 56 57
71 78 81 87 83 62 46 37 33 28 26 28 30 32 33 39 50 70 98 98 90 87 82 81 78 76 77 79 83 74 69 68 71 70 70 72 71 71 68 70 69 64 60 63
64 56 62 76 68 52 31 25 24 23 22 27 28 31 31 29 33 40 56 75 86 91 93 90 88 83 84 82 80 76 73 73 73 72 70 72 73 73 70 69 67 65 67 67
56 70 67 62 53 32 23 25 28 25 21 21 23 24 30 42 37 37 40 47 54 76 94 97 96 93 94 91 84 81 81 78 79 77 74 78 77 78 77 74 69 68 70 71
71 77 69 55 34 29 30 27 26 25 24 23 21 23 27 32 38 45 43 40 42 50 67 89 96 98 96 92 86 84 83 80 82 84 79 77 77 81 82 79 74 70 71 74
74 69 66 40 50 49 37 30 25 23 21 23 24 25 26 28 32 38 43 47 46 46 62 75 90 97 98 94 92 90 88 88 89 88 84 78 84 88 85 81 74 72 75 75
72 70 59 56 40 34 26 24 25 25 25 26 29 34 37 39 41 46 48 49 50 47 50 66 90 98 98 95 90 89 90 88 88 87 89 86 89 90 87 82 79 76 78 77
81 73 56 39 34 37 27 25 25 27 29 33 46 54 51 50 50 56 62 70 62 56 55 56 71 88 97 96 90 85 84 82 83 85 87 92 95 91 84 82 82 83 84 81
68 72 59 44 40 27 25 26 28 30 36 55 63 64 56 56 61 67 68 74 77 65 64 69 74 81 84 87 83 85 87 89 86 84 88 97 97 91 86 84 86 88 88 84
94 75 48 41 32 30 31 32 34 38 55 66 69 60 56 59 67 79 71 78 81 75 74 80 88 88 88 89 87 87 83 80 84 91 98 98 96 92 92 89 89 91 89 87
65 53 46 36 33 32 32 36 38 48 56 66 70 60 61 65 75 81 83 81 83 83 83 83 84 91 93 90 84 81 84 90 95 98 98 98 97 96 95 94 94 93 92 90
46 43 37 36 36 38 38 40 45 47 57 69 74 69 64 71 82 82 79 82 86 85 84 85 85 90 91 90 87 88 91 97 98 96 98 98 97 97 96 97 96 94 93 93
40 41 42 41 42 44 48 49 50 54 63 75 77 78 71 69 77 78 77 82 88 88 87 85 87 90 91 92 92 91 97 98 98 98 98 98 97 97 97 97 97 96 95 95
52 51 52 54 55 53 52 54 54 57 70 79 81 81 80 78 76 77 76 77 77 76 80 84 86 89 90 91 94 96 97 98 97 97 98 98 97 98 98 98 98 98 97 97
54 58 56 55 56 59 59 57 58 63 76 82 84 83 84 82 82 78 75 77 81 82 81 84 86 88 93 95 96 97 98 98 98 98 97 97 97 98 98 98 98 98 98 98
84 82 77 74 64 57 55 60 63 74 84 85 87 89 88 86 85 85 86 87 85 88 89 88 90 92 97 98 98 98 98 98 98 98 98 98 98 98 98 98 98 98 98 96